#timestamp,LO_Frequency,Hit,StdDev 
1573034415.3,286046995.0,N
1573034435.1,286046999.6,N
1573034455.9,286047001.1,N
1573034475.7,286047000.5,N
1573034495.6,286047001.0,N
1573034515.4,286047001.9,N
1573034535.2,286047001.6,N
1573034555.1,286047002.7,N
1573034556.0,286047002.7,N
1573034575.8,286046999.8,N
1573034595.6,286047000.0,N
1573034615.5,286047001.0,N
1573034635.3,286047000.4,N
1573034655.2,286047000.5,N
1573034675.9,286047002.4,N
1573034695.7,286046999.8,N
1573034715.6,286047000.8,N
1573034735.4,286046998.1,N
1573034755.2,286046998.6,N
1573034775.1,286047000.6,N
1573034776.0,286047000.6,N
1573034795.8,286047000.8,N
1573034815.7,286047000.2,N
1573034835.5,286047000.7,N
1573034855.3,286047002.4,N
1573034875.2,286047001.1,N
1573034895.9,286046998.6,N
1573034915.7,286046998.2,N
1573034935.6,286047000.6,N
1573034955.4,286047000.4,N
1573034975.3,286047001.0,N
1573034995.1,286047002.8,N
1573034996.0,286047002.8,N
1573035015.8,286047000.7,N
1573035035.7,286047000.5,N
1573035055.5,286047003.8,N
1573035075.3,286047003.8,N
1573035095.2,286047004.0,N
1573035115.0,286047001.6,N
1573035115.9,286047001.6,N
1573035135.8,286047002.4,N
1573035155.6,286047000.3,N
1573035175.4,286046998.5,N
1573035195.3,286047000.8,N
1573035215.1,286046998.2,N
1573035235.8,286046999.0,N
1573035255.7,286046997.0,N
1573035275.5,286046999.6,N
1573035295.4,286046999.6,N
1573035315.2,286046997.7,N
1573035335.0,286046997.2,N
1573035335.9,286046997.2,N
1573035355.8,286046997.1,N
1573035375.6,286046997.2,N
1573035395.4,286046995.3,N
1573035415.3,286046997.5,N
1573035435.1,286046996.6,N
1573035455.9,286046996.6,N
1573035475.7,286046999.1,N
1573035495.5,286047000.8,N
1573035515.4,286046998.6,N
1573035535.2,286047000.1,N
1573035555.0,286046999.8,N
1573035555.9,286046999.8,N
1573035575.8,286047000.8,N
1573035595.6,286047000.6,N
1573035615.5,286046998.1,N
1573035635.3,286047001.0,N
1573035655.1,286047000.5,N
1573035675.9,286047000.3,N
1573035695.7,286047000.4,N
1573035715.5,286046998.2,N
1573035735.4,286047000.8,N
1573035755.2,286046998.7,N
1573035775.1,286046998.5,N
1573035776.0,286046998.5,N
1573035795.8,286047001.0,N
1573035815.6,286046998.4,N
1573035835.5,286046999.1,N
1573035855.3,286046996.8,N
1573035875.1,286046999.2,N
1573035895.9,286046999.5,N
1573035915.7,286046997.0,N
1573035935.6,286046999.2,N
1573035955.4,286047001.1,N
1573035975.2,286046998.7,N
1573035995.1,286046998.4,N
1573035996.0,286046998.4,N
1573036015.8,286046997.1,N
1573036035.7,286046997.7,N
1573036055.5,286046999.0,N
1573036075.3,286046997.7,N
1573036095.2,286046996.9,N
1573036115.9,286046997.3,N
1573036135.7,286046999.4,N
1573036155.6,286046996.9,N
1573036175.4,286046997.1,N
1573036195.3,286046997.6,N
1573036215.1,286046995.7,Y
1573036216.0,286046995.7,P
1573036235.8,286046999.0,N
1573036255.7,286046996.5,N
1573036275.5,286046996.7,N
1573036295.3,286046996.7,N
1573036315.2,286046997.1,N
1573036335.0,286046997.4,N
1573036335.9,286046997.4,N
1573036355.8,286046996.9,Y
1573036375.6,286047001.0,P
1573036395.4,286046999.8,N
1573036415.3,286047000.9,N
1573036435.1,286047001.0,N
1573036455.8,286047001.0,N
1573036475.7,286046999.7,N
1573036495.5,286047001.4,N
1573036515.4,286047001.5,N
1573036535.2,286047004.3,Y
1573036555.0,286047004.0,P
1573036555.9,286047004.0,N
1573036575.8,286047004.3,N
1573036595.6,286047003.3,N
1573036615.5,286047005.8,Y
1573036635.3,286047002.8,P
1573036655.1,286047000.2,N
1573036675.9,286047004.1,P
1573036695.7,286047004.0,N
1573036715.6,286047002.4,N
1573036735.4,286047000.3,N
1573036755.2,286047002.8,N
1573036775.1,286046999.7,N
1573036776.0,286046999.7,N
1573036795.8,286047002.1,N
1573036815.6,286047004.1,N
1573036835.5,286047001.6,N
1573036855.3,286047003.4,N
1573036875.2,286047005.6,Y
1573036895.9,286047001.3,P
1573036915.7,286047002.5,P
1573036935.6,286047004.4,P
1573036955.4,286047003.6,Y
1573036975.2,286047001.1,P
1573036995.1,286047001.0,N
1573036996.0,286047001.0,N
1573037015.8,286046998.2,N
1573037035.7,286046999.0,N
1573037055.5,286046999.5,N
1573037075.3,286046999.8,N
1573037095.2,286047001.6,N
1573037115.0,286047002.4,N
1573037115.9,286047002.4,N
1573037135.8,286047002.3,N
1573037155.6,286047001.0,N
1573037175.4,286046998.9,N
1573037195.3,286046998.8,N
1573037215.1,286046996.7,N
1573037235.8,286046997.3,N
1573037255.7,286046996.7,N
1573037275.5,286046997.5,N
1573037295.4,286046994.9,N
1573037315.2,286046999.5,N
1573037335.0,286046999.1,N
1573037335.9,286046999.1,N
1573037355.8,286046998.4,N
1573037375.6,286046998.9,N
1573037395.5,286047000.4,N
1573037415.3,286047001.4,N
1573037435.1,286047001.8,N
1573037455.9,286047003.0,N
1573037475.7,286047006.0,N
1573037495.5,286047005.4,N
1573037515.4,286047003.3,N
1573037535.2,286047003.2,N
1573037555.1,286047003.7,N
1573037556.0,286047003.7,N
1573037575.8,286047003.4,N
1573037595.6,286047004.0,N
1573037615.5,286047001.7,N
1573037635.3,286046999.9,N
1573037655.2,286046998.7,N
1573037675.9,286047000.6,N
1573037695.7,286046999.7,N
1573037715.6,286046999.7,N
1573037735.4,286047000.8,N
1573037755.3,286047002.6,N
1573037775.1,286047000.1,N
1573037776.0,286047000.1,N
1573037795.8,286047001.5,N
1573037815.7,286046999.8,N
1573037835.5,286047000.3,N
1573037855.3,286046998.1,N
1573037875.2,286047000.8,N
1573037895.0,286046997.2,N
1573037895.9,286046997.2,N
1573037915.8,286046999.6,N
1573037935.6,286046999.0,N
1573037955.4,286046999.0,N
1573037975.3,286046998.8,N
1573037995.1,286047001.1,N
